User: anonymous   Login
Location: Coffee Creek Observatory
(38.8077°N, 94.7179°W)
Time: 01:11:58
(UTC-05:00)
Language:

Lacrosse 4 Rocket - Orbit

View from above orbital plane
View from above orbital plane
View from above satellite
View from above satellite

Ground track
Ground track

The orbit data is extracted from the following two-line orbital elements,

1 26474U 00047B   16243.17172412  .00000295  00000-0  36875-4 0  9994
2 26474  67.9940 292.5974 0061876 282.0741  77.3471 14.95257826871879
Epoch (UTC): 30 August 2016 04:07:16
Eccentricity: 0.0061876
inclination: 67.9940°
perigee height: 538 km
apogee height: 624 km
right ascension of ascending node: 292.5974°
argument of perigee: 282.0741°
revolutions per day: 14.95257826
mean anomaly at epoch: 77.3471°
orbit number at epoch: 87187

The dashed part of the orbit path shows where the satellite is in the earth's shadow,  

DLR